Main page
METAR-TAF:

METAR-TAF

Airports :

Zabol Airport

Zabol, Iran

latitude: 31-20N, longitude: 061-29E, elevation: 489 m

Current weather observation

The report was made 17 minutes ago, at 14:00 UTC
Wind 19 kt from the North/Northwest
Temperature 42°C
Humidity 9%
Pressure 994 hPa
Visibility 10 km or more
no clouds below 1500 m and no cumulonimbus

METAR: OIZB 181400Z 33019KT CAVOK 42/02 Q0994

Time: 18:47 (14:17 UTC)


TAF: missing

Weather observations and forecasts of more than 4000 airports (METAR and TAF reports).

The available stations are represented by yellow and red dots on the map.

Hover mouse over dot to see the name of the station.

Then click to see weather observations and forecasts.

To change the map : click on the green buttons with a black cross to zoom in, on the green button with a dash to zoom out, or on the green arrows for adjacent maps.


METAR-TAF: